Total_Precipitation_Accumulation
0.16 0.17 0.17 0.20 0.17 0.10 0.03 0.01 0.01 0.00 0.00 0.01 0.01 0.01 0.01 0.02 0.03 0.09 0.11 0.10 0.08 0.13 0.23 0.44 0.57 0.60 0.73 0.77 0.71 0.65 0.64 0.64 0.67 0.72 0.74 0.75 0.71 0.68 0.68 0.70 0.70 0.79 0.87 0.89 0.89 0.84 0.81 0.78 0.75
0.18 0.23 0.28 0.28 0.14 0.06 0.03 0.01 0.01 0.00 0.00 0.01 0.02 0.01 0.01 0.02 0.02 0.05 0.10 0.10 0.10 0.16 0.23 0.32 0.54 0.60 0.75 0.80 0.74 0.71 0.68 0.66 0.70 0.74 0.74 0.76 0.79 0.78 0.72 0.70 0.76 0.81 0.92 0.97 0.89 0.79 0.78 0.78 0.74
0.29 0.34 0.34 0.29 0.12 0.03 0.02 0.01 0.01 0.01 0.01 0.01 0.01 0.01 0.02 0.02 0.03 0.05 0.08 0.10 0.13 0.17 0.21 0.35 0.57 0.62 0.73 0.82 0.83 0.79 0.78 0.77 0.77 0.78 0.73 0.74 0.78 0.77 0.74 0.74 0.79 0.82 0.88 0.88 0.87 0.81 0.80 0.77 0.70
0.44 0.51 0.41 0.27 0.09 0.02 0.01 0.01 0.01 0.01 0.01 0.01 0.01 0.02 0.03 0.03 0.03 0.05 0.07 0.10 0.14 0.19 0.23 0.40 0.63 0.75 0.81 0.84 0.90 0.89 0.86 0.88 0.90 0.86 0.83 0.84 0.84 0.82 0.76 0.73 0.74 0.76 0.82 0.85 0.81 0.79 0.79 0.79 0.71
0.58 0.59 0.43 0.21 0.06 0.02 0.01 0.01 0.02 0.02 0.02 0.02 0.01 0.02 0.04 0.04 0.04 0.05 0.10 0.12 0.15 0.20 0.27 0.42 0.70 0.90 0.91 0.90 0.94 0.98 1.02 1.05 1.08 1.04 1.00 0.98 0.94 0.91 0.89 0.82 0.75 0.70 0.70 0.73 0.76 0.76 0.76 0.81 0.75
0.73 0.64 0.36 0.14 0.06 0.03 0.02 0.02 0.03 0.03 0.03 0.04 0.03 0.04 0.06 0.08 0.07 0.10 0.16 0.21 0.21 0.26 0.34 0.51 0.85 1.01 1.00 1.00 1.04 1.07 1.10 1.15 1.15 1.14 1.12 1.07 1.00 0.96 0.99 0.94 0.81 0.70 0.61 0.59 0.62 0.65 0.71 0.74 0.72
0.72 0.57 0.28 0.11 0.07 0.05 0.03 0.03 0.03 0.05 0.05 0.05 0.04 0.05 0.08 0.12 0.11 0.14 0.22 0.32 0.37 0.36 0.44 0.63 0.85 1.05 1.13 1.13 1.12 1.09 1.13 1.18 1.21 1.19 1.16 1.10 0.99 0.97 0.96 0.93 0.84 0.73 0.65 0.60 0.57 0.59 0.64 0.65 0.67
0.69 0.63 0.31 0.14 0.10 0.08 0.04 0.04 0.04 0.06 0.08 0.07 0.05 0.06 0.07 0.11 0.15 0.21 0.32 0.45 0.53 0.56 0.63 0.77 0.95 1.05 1.11 1.16 1.15 1.10 1.08 1.11 1.17 1.18 1.15 1.02 0.95 0.92 0.91 0.85 0.78 0.72 0.71 0.66 0.60 0.58 0.60 0.55 0.52
0.81 0.80 0.36 0.12 0.10 0.08 0.04 0.05 0.05 0.06 0.11 0.11 0.09 0.07 0.08 0.11 0.22 0.35 0.50 0.67 0.75 0.80 0.92 1.01 1.14 1.21 1.27 1.27 1.19 1.21 1.18 1.18 1.18 1.15 1.09 1.04 0.98 0.93 0.87 0.78 0.72 0.73 0.73 0.68 0.61 0.57 0.58 0.53 0.46
0.93 0.78 0.32 0.10 0.09 0.09 0.06 0.06 0.07 0.10 0.12 0.11 0.15 0.13 0.14 0.22 0.35 0.42 0.46 0.60 0.72 0.81 0.98 1.07 1.23 1.32 1.40 1.37 1.38 1.39 1.25 1.21 1.20 1.10 1.01 1.00 0.98 0.94 0.83 0.79 0.74 0.72 0.74 0.76 0.74 0.66 0.59 0.50 0.43
0.72 0.53 0.23 0.12 0.10 0.13 0.12 0.10 0.09 0.14 0.15 0.11 0.14 0.19 0.21 0.32 0.41 0.46 0.47 0.56 0.66 0.82 1.00 1.18 1.31 1.48 1.54 1.51 1.50 1.48 1.40 1.30 1.27 1.18 1.15 1.15 1.16 1.08 1.00 0.91 0.84 0.83 0.80 0.86 0.86 0.86 0.73 0.64 0.57
0.54 0.35 0.22 0.16 0.13 0.16 0.17 0.15 0.14 0.13 0.10 0.08 0.11 0.17 0.27 0.36 0.40 0.46 0.53 0.63 0.78 0.95 1.07 1.29 1.52 1.67 1.72 1.72 1.62 1.50 1.40 1.31 1.31 1.28 1.28 1.30 1.26 1.17 1.06 0.98 0.90 0.85 0.84 0.85 0.90 0.92 0.85 0.78 0.69
0.51 0.32 0.23 0.21 0.19 0.18 0.19 0.18 0.16 0.14 0.09 0.11 0.16 0.19 0.27 0.33 0.42 0.53 0.66 0.78 0.88 0.97 1.11 1.37 1.61 1.76 1.83 1.96 1.92 1.66 1.50 1.36 1.32 1.35 1.30 1.24 1.24 1.19 1.09 0.98 0.90 0.82 0.77 0.77 0.78 0.78 0.81 0.79 0.74
0.50 0.37 0.28 0.25 0.26 0.23 0.21 0.19 0.17 0.13 0.13 0.20 0.25 0.25 0.27 0.28 0.37 0.57 0.73 0.86 0.94 1.03 1.16 1.40 1.67 1.85 1.95 1.93 1.99 1.92 1.77 1.60 1.50 1.39 1.31 1.24 1.19 1.17 1.08 0.97 0.84 0.75 0.68 0.63 0.61 0.58 0.62 0.67 0.67
0.53 0.53 0.46 0.35 0.31 0.28 0.29 0.26 0.14 0.10 0.17 0.26 0.32 0.34 0.34 0.33 0.36 0.50 0.66 0.79 0.89 1.07 1.33 1.54 1.79 2.03 2.07 1.99 1.96 2.02 2.05 1.93 1.80 1.60 1.44 1.34 1.24 1.17 1.16 1.10 1.01 0.90 0.81 0.73 0.67 0.60 0.56 0.56 0.58
0.83 0.88 0.77 0.45 0.36 0.35 0.48 0.36 0.12 0.12 0.23 0.29 0.36 0.41 0.41 0.41 0.38 0.42 0.59 0.77 0.94 1.12 1.35 1.68 1.91 2.08 2.08 2.12 2.15 2.09 2.11 2.13 1.95 1.76 1.64 1.48 1.35 1.25 1.25 1.20 1.08 1.03 1.02 0.93 0.87 0.78 0.71 0.61 0.55
1.28 1.11 0.73 0.46 0.40 0.44 0.52 0.35 0.15 0.18 0.27 0.33 0.38 0.41 0.47 0.51 0.48 0.47 0.54 0.68 0.91 1.07 1.24 1.56 1.89 2.01 2.06 2.14 2.30 2.34 2.32 2.24 2.08 1.88 1.71 1.62 1.49 1.33 1.23 1.21 1.14 1.07 1.04 0.99 0.97 0.92 0.87 0.81 0.71
1.10 0.80 0.59 0.45 0.40 0.48 0.48 0.32 0.20 0.25 0.32 0.35 0.36 0.42 0.50 0.52 0.45 0.47 0.56 0.69 0.90 1.09 1.26 1.46 1.84 2.07 2.24 2.32 2.36 2.47 2.48 2.40 2.27 2.11 1.89 1.79 1.70 1.56 1.38 1.27 1.22 1.20 1.15 1.05 0.95 0.92 0.93 0.91 0.85
0.77 0.67 0.59 0.42 0.35 0.48 0.45 0.30 0.23 0.25 0.32 0.36 0.37 0.44 0.48 0.49 0.51 0.56 0.66 0.80 0.96 1.10 1.24 1.40 1.71 1.90 2.14 2.21 2.13 2.06 2.13 2.16 2.18 2.19 2.13 2.02 1.94 1.84 1.68 1.50 1.38 1.36 1.28 1.18 1.04 0.95 0.93 0.91 0.88
0.88 0.84 0.63 0.47 0.40 0.50 0.45 0.31 0.23 0.24 0.30 0.33 0.37 0.43 0.48 0.52 0.59 0.63 0.75 0.91 0.97 1.02 1.16 1.32 1.57 1.76 1.89 1.90 1.87 1.85 1.85 1.93 2.00 2.09 2.18 2.20 2.12 1.99 1.88 1.73 1.58 1.46 1.42 1.33 1.20 1.08 1.01 0.94 0.87
0.96 0.83 0.65 0.60 0.59 0.64 0.62 0.53 0.30 0.28 0.30 0.32 0.38 0.42 0.44 0.49 0.53 0.55 0.67 0.91 1.02 1.02 1.11 1.25 1.45 1.62 1.82 2.00 2.08 2.08 2.18 2.18 2.05 1.96 2.00 2.09 2.08 1.98 1.88 1.78 1.73 1.67 1.56 1.45 1.37 1.29 1.20 1.11 0.99
0.98 0.63 0.61 0.68 0.95 1.13 0.91 1.01 0.48 0.33 0.35 0.32 0.37 0.45 0.43 0.47 0.52 0.52 0.60 0.83 1.00 1.00 1.14 1.30 1.49 1.70 1.81 2.02 2.11 1.97 1.91 1.94 1.80 1.72 1.71 1.86 2.02 2.00 1.91 1.86 1.83 1.74 1.63 1.49 1.42 1.43 1.41 1.39 1.33
0.71 0.58 0.71 0.84 1.10 1.29 0.97 1.07 0.59 0.35 0.44 0.41 0.40 0.48 0.45 0.47 0.52 0.51 0.56 0.75 0.96 1.06 1.16 1.36 1.51 1.74 1.90 1.98 2.03 1.95 1.82 1.73 1.78 1.87 1.87 1.83 1.87 1.97 1.96 1.85 1.82 1.75 1.63 1.55 1.48 1.39 1.40 1.41 1.41
0.70 0.91 1.19 1.34 1.81 1.99 0.92 0.86 0.68 0.54 0.58 0.51 0.48 0.53 0.51 0.51 0.55 0.58 0.61 0.75 0.91 1.04 1.18 1.33 1.56 1.72 1.94 2.03 1.99 1.83 1.71 1.65 1.70 1.79 1.94 1.99 1.96 1.98 2.01 1.92 1.85 1.76 1.60 1.50 1.51 1.45 1.38 1.35 1.36
1.17 1.75 2.72 3.03 2.97 1.81 0.54 0.58 0.70 0.58 0.53 0.55 0.56 0.56 0.55 0.57 0.61 0.61 0.63 0.71 0.81 0.95 1.11 1.25 1.44 1.71 1.91 2.05 1.98 1.77 1.64 1.58 1.60 1.64 1.75 1.84 1.91 1.96 1.98 1.95 1.84 1.73 1.63 1.50 1.49 1.50 1.46 1.41 1.44
1.24 1.44 1.98 2.12 1.57 0.78 0.43 0.54 0.58 0.52 0.45 0.46 0.49 0.53 0.49 0.57 0.66 0.65 0.62 0.69 0.77 0.89 1.05 1.22 1.37 1.62 1.86 1.99 1.98 1.87 1.66 1.57 1.57 1.61 1.64 1.68 1.62 1.64 1.80 1.95 2.00 1.82 1.63 1.55 1.52 1.50 1.47 1.47 1.48
1.16 1.18 1.00 1.35 0.98 0.65 0.58 0.49 0.43 0.38 0.36 0.41 0.47 0.54 0.55 0.60 0.70 0.73 0.70 0.74 0.78 0.88 1.02 1.19 1.34 1.52 1.77 1.98 1.99 1.95 1.78 1.65 1.60 1.60 1.61 1.69 1.65 1.57 1.62 1.78 1.94 2.04 1.97 1.79 1.67 1.59 1.51 1.52 1.57
1.02 1.11 1.34 1.85 1.55 0.90 0.54 0.44 0.51 0.45 0.40 0.41 0.47 0.57 0.58 0.59 0.68 0.74 0.74 0.77 0.82 0.93 1.05 1.18 1.33 1.45 1.63 1.84 1.95 1.95 1.97 1.80 1.71 1.69 1.63 1.61 1.68 1.66 1.58 1.58 1.68 1.79 1.89 1.91 1.85 1.77 1.63 1.57 1.54
1.10 1.39 1.67 1.72 1.36 1.14 0.76 0.57 0.56 0.47 0.41 0.41 0.43 0.54 0.59 0.63 0.70 0.78 0.81 0.79 0.83 0.98 1.10 1.16 1.26 1.43 1.60 1.69 1.77 1.85 1.99 1.88 1.80 1.78 1.71 1.60 1.59 1.68 1.68 1.63 1.67 1.70 1.72 1.76 1.84 1.83 1.78 1.76 1.70
0.95 1.19 1.41 1.74 1.35 0.89 0.86 0.68 0.47 0.39 0.36 0.35 0.37 0.47 0.55 0.61 0.68 0.71 0.76 0.79 0.79 0.90 1.09 1.19 1.26 1.31 1.50 1.65 1.69 1.77 1.90 1.96 1.85 1.80 1.75 1.61 1.51 1.54 1.62 1.67 1.69 1.75 1.78 1.77 1.82 1.82 1.79 1.86 1.84